Weather History for Elefsis, Greece

Change the Weather History Date:

Tuesday, June 18, 2013

  Actual Average Record
Temperature  
Mean Temperature 83 °F -  
Max Temperature 93 °F 88 °F 96 °F (2007)
Min Temperature 73 °F 70 °F 62 °F (2000)
Cooling Degree Days 18    
Growing Degree Days 33 (Base 50)    
Moisture  
Dew Point 53 °F    
Average Humidity 34    
Maximum Humidity 53    
Minimum Humidity 21    
Precipitation  
Precipitation 0.00 in - - ()
Sea Level Pressure  
Sea Level Pressure 29.96 in    
Wind  
Wind Speed 10 mph ()    
Max Wind Speed 18 mph    
Max Gust Speed 28 mph    
Averages and records for this station are not official NWS values.
T = Trace of Precipitation, MM = Missing Value Source: Averaged Metar Reports

Daily Weather History Graph

Daily Weather History Graph

Search for Another Location

Airport:

Trip Planner

Search our weather history database for the weather conditions in past years. The results will help you decide how hot, cold, wet, or windy it might be!

Date:

Astronomy

Jun. 18, 2013 Rise Set
Actual Time 6:02 AM EEST 8:51 PM EEST
Civil Twilight 5:31 AM EEST 9:22 PM EEST
Nautical Twilight 4:51 AM EEST 10:02 PM EEST
Astronomical Twilight 4:06 AM EEST 10:47 PM EEST
Moon 3:18 PM EEST (6/18) 1:56 AM EEST (6/18)
Length of Visible Light 15h 51m
Length of Day
14h 48m
Waxing Gibbous, 67% of the Moon is Illuminated
Jun 18
Waxing Gibbous
Jun 23
Full
Jun 30
Last Quarter
Jul 8
New
Jul 16
First Quarter

Hourly Weather History & Observations

Time (EEST) Temp. Heat Index Dew Point Humidity Pressure Visibility Wind Dir Wind Speed Gust Speed Precip Events Conditions
12:20 AM 77.0 °F - 55.4 °F 47% 29.98 in - NW 8.1 mph - N/A   Clear
12:50 AM 78.8 °F - 53.6 °F 42% 29.98 in - NNW 8.1 mph - N/A   Clear
1:50 AM 77.0 °F - 53.6 °F 44% 29.95 in - NNW 11.5 mph - N/A   Clear
2:50 AM 75.2 °F - 55.4 °F 50% 29.95 in - NNW 11.5 mph - N/A   Clear
3:50 AM 77.0 °F - 53.6 °F 44% 29.95 in - North 8.1 mph - N/A   Clear
4:50 AM 77.0 °F - 55.4 °F 47% 29.95 in - NNW 9.2 mph - N/A   Clear
5:50 AM 73.4 °F - 55.4 °F 53% 29.95 in - North 6.9 mph - N/A   Clear
6:20 AM 75.2 °F - 55.4 °F 50% 29.98 in - North 6.9 mph - N/A   Clear
6:50 AM 75.2 °F - 55.4 °F 50% 29.98 in - NNW 6.9 mph - N/A   Clear
7:20 AM 80.6 °F 80.5 °F 55.4 °F 42% 29.98 in - NNW 6.9 mph - N/A   Clear
7:50 AM 82.4 °F 81.7 °F 55.4 °F 39% 29.98 in - NNE 6.9 mph - N/A   Clear
8:20 AM 84.2 °F 83.0 °F 55.4 °F 37% 29.98 in - North 5.8 mph - N/A   Clear
8:50 AM 84.2 °F 83.0 °F 55.4 °F 37% 29.98 in - North 6.9 mph - N/A   Clear
9:20 AM 86.0 °F 84.5 °F 55.4 °F 35% 29.98 in - North 8.1 mph - N/A   Clear
9:50 AM 87.8 °F 85.7 °F 53.6 °F 31% 29.98 in - North 8.1 mph - N/A   Clear
10:20 AM 87.8 °F 85.7 °F 53.6 °F 31% 29.98 in - NNE 10.4 mph - N/A   Clear
10:50 AM 87.8 °F 85.7 °F 53.6 °F 31% 29.98 in - North 11.5 mph - N/A   Clear
11:20 AM 89.6 °F 87.3 °F 53.6 °F 29% 29.98 in - North 11.5 mph - N/A   Clear
11:50 AM 91.4 °F 89.1 °F 53.6 °F 28% 29.98 in - North 11.5 mph - N/A   Clear
12:20 PM 91.4 °F - 51.8 °F 26% 29.98 in - NNE 13.8 mph - N/A   Clear
12:50 PM 91.4 °F 89.1 °F 53.6 °F 28% 29.98 in - North 13.8 mph - N/A   Clear
1:20 PM 93.2 °F 90.8 °F 53.6 °F 26% 29.98 in - North 13.8 mph - N/A   Clear
1:50 PM 93.2 °F - 51.8 °F 24% 29.95 in - North 18.4 mph - N/A   Clear
2:20 PM 93.2 °F - 51.8 °F 24% 29.95 in - NE 18.4 mph - N/A   Clear
2:50 PM 93.2 °F - 51.8 °F 24% 29.95 in - NNE 16.1 mph 27.6 mph N/A   Clear
3:20 PM 93.2 °F - 50.0 °F 23% 29.95 in - NNE 15.0 mph 26.5 mph N/A   Clear
3:50 PM 93.2 °F - 51.8 °F 24% 29.95 in - NNE 13.8 mph 25.3 mph N/A   Clear
4:20 PM 93.2 °F - 51.8 °F 24% 29.95 in - NNE 13.8 mph 25.3 mph N/A   Clear
4:50 PM 93.2 °F - 50.0 °F 23% 29.92 in - North 16.1 mph 27.6 mph N/A   Clear
5:20 PM 93.2 °F - 48.2 °F 21% 29.92 in - North 16.1 mph 27.6 mph N/A   Clear
5:50 PM 91.4 °F - 50.0 °F 24% 29.92 in - North 15.0 mph 26.5 mph N/A   Clear
6:20 PM 91.4 °F - 50.0 °F 24% 29.92 in - North 12.7 mph 24.2 mph N/A   Clear
6:50 PM 91.4 °F - 50.0 °F 24% 29.92 in - North 16.1 mph - N/A   Clear
7:20 PM 89.6 °F - 51.8 °F 27% 29.92 in - North 16.1 mph - N/A   Clear
7:50 PM 87.8 °F - 51.8 °F 29% 29.92 in - North 16.1 mph - N/A   Clear
8:20 PM 86.0 °F - 51.8 °F 31% 29.92 in - North 11.5 mph - N/A   Clear
8:50 PM 84.2 °F 82.8 °F 53.6 °F 35% 29.95 in - NNW 11.5 mph - N/A   Clear
9:20 PM 84.2 °F 83.0 °F 55.4 °F 37% 29.95 in - NNW 11.5 mph - N/A   Clear
9:50 PM 82.4 °F 81.7 °F 55.4 °F 39% 29.95 in - NNW 6.9 mph - N/A   Clear
10:20 PM 82.4 °F 81.7 °F 55.4 °F 39% 29.95 in - NNW 6.9 mph - N/A   Clear
10:50 PM 82.4 °F 81.7 °F 55.4 °F 39% 29.95 in - North 6.9 mph - N/A   Clear
11:20 PM 82.4 °F 81.7 °F 55.4 °F 39% 29.95 in - NNW 9.2 mph - N/A   Clear
11:50 PM 82.4 °F 81.7 °F 55.4 °F 39% 29.95 in - NNW 8.1 mph - N/A   Clear